1483848001.15,56921,2.88,72418.8,-21.15,-51.63,-52.21,0,*6B
1483848002.42,56922,2.88,72418.3,-21.15,-51.85,-52.29,0,*68
1483848003.68,56923,2.88,72416.0,-21.15,-51.85,-52.21,0,*61
1483848004.95,56924,2.88,72424.0,-21.15,-51.77,-52.29,0,*63
1483848006.25,56925,2.88,72424.3,-21.15,-51.63,-51.99,0,*6F
1483848007.49,56926,2.88,72424.3,-21.17,-51.55,-51.77,0,*6B
1483848008.79,56927,2.88,72428.3,-21.15,-51.55,-51.99,0,*68
1483848010.0,56928,2.88,72424.8,-21.17,-51.41,-51.85,0,*6D
1483848011.24,56929,2.88,72424.5,-21.17,-51.55,-51.85,0,*69
1483848012.47,56930,2.88,72418.8,-21.17,-51.55,-51.85,0,*61
1483848013.74,56931,2.88,72420.0,-21.17,-51.55,-51.99,0,*6D
1483848015.01,56932,2.88,72420.5,-21.15,-51.33,-51.85,0,*61
1483848016.24,56933,2.88,72422.0,-21.17,-51.55,-51.85,0,*62
1483848017.51,56934,2.88,72422.8,-21.17,-51.33,-51.99,0,*68
1483848018.78,56935,2.88,72422.3,-21.15,-51.33,-51.77,0,*6B
1483848019.99,56936,2.88,72424.3,-21.17,-51.19,-51.41,0,*67
1483848021.26,56937,2.88,72426.8,-21.15,-51.55,-51.77,0,*69
1483848022.51,56938,2.88,72426.3,-21.15,-51.41,-51.77,0,*63
1483848023.78,56939,2.88,72422.5,-21.15,-51.11,-51.63,0,*62
1483848025.0,56940,2.88,72426.0,-21.17,-51.41,-51.85,0,*63
1483848026.29,56941,2.88,72426.0,-21.15,-51.33,-51.63,0,*6D
1483848027.57,56942,2.88,72424.3,-21.15,-51.11,-51.63,0,*6E
1483848028.78,56943,2.88,72424.3,-21.17,-51.41,-51.85,0,*60
1483848030.02,56944,2.88,72426.5,-21.17,-51.33,-51.77,0,*6F
1483848031.26,56945,2.88,72424.5,-21.15,-51.41,-51.85,0,*64
1483848032.51,56946,2.88,72426.8,-21.15,-51.19,-51.85,0,*6A
1483848033.72,56947,2.88,72426.0,-21.17,-51.41,-51.85,0,*64
1483848035.02,56948,2.88,72428.8,-21.15,-51.63,-51.99,0,*64
1483848036.26,56949,2.88,72422.0,-21.17,-51.33,-51.85,0,*6F
1483848037.53,56950,2.88,72420.0,-21.15,-51.63,-52.07,0,*69
1483848038.8,56951,2.88,72426.0,-21.15,-51.55,-51.85,0,*64
1483848040.08,56952,2.88,72424.0,-21.15,-51.19,-51.63,0,*67
1483848041.35,56953,2.88,72420.5,-21.15,-50.89,-51.33,0,*6B
1483848042.56,56954,2.88,72418.5,-21.17,-51.19,-51.77,0,*66
1483848043.83,56955,2.88,72418.5,-21.15,-51.05,-51.55,0,*68
1483848045.07,56956,2.88,72422.8,-21.17,-51.33,-51.77,0,*6C
1483848046.31,56957,2.88,72422.5,-21.15,-51.05,-51.19,0,*62
1483848047.56,56958,2.88,72424.8,-21.15,-51.11,-51.41,0,*65
1483848048.83,56959,2.88,72422.3,-21.15,-50.83,-51.19,0,*63
1483848050.08,56960,2.88,72424.0,-21.15,-51.05,-51.41,0,*6B
1483848051.32,56961,2.88,72428.8,-21.17,-51.19,-51.55,0,*60
1483848052.56,56962,2.88,72424.3,-21.17,-51.33,-51.77,0,*6B
1483848053.85,56963,2.88,72426.0,-21.15,-51.33,-51.63,0,*6D
1483848055.1,56964,2.88,72418.5,-21.15,-51.19,-51.77,0,*67
1483848056.35,56965,2.88,72426.3,-21.15,-51.19,-51.41,0,*63
1483848057.59,56966,2.88,72422.3,-21.15,-50.89,-51.19,0,*65
1483848058.83,56967,2.88,72426.8,-21.15,-50.89,-51.41,0,*69
1483848060.13,56968,2.88,72426.3,-21.15,-51.33,-51.63,0,*66
1483848061.35,56969,2.88,72424.0,-21.13,-51.11,-51.69,0,*6B
1483848062.64,56970,2.88,72422.3,-21.15,-51.33,-51.63,0,*6F
1483848063.88,56971,2.88,72422.8,-21.17,-51.41,-51.63,0,*69
1483848065.18,56972,2.88,72424.8,-21.15,-51.33,-51.63,0,*6D
1483848066.39,56973,2.88,72428.0,-21.17,-50.89,-51.41,0,*6E
1483848067.63,56974,2.88,72422.5,-21.15,-50.89,-51.19,0,*66
1483848068.9,56975,2.88,72430.0,-21.15,-50.83,-51.19,0,*6D
1483848070.17,56976,2.88,72420.5,-21.15,-51.11,-51.55,0,*6C
1483848071.41,56977,2.88,72426.3,-21.17,-51.05,-51.55,0,*6A
1483848072.65,56978,2.88,72424.5,-21.13,-51.05,-51.47,0,*62
1483848073.89,56979,2.88,72430.0,-21.13,-51.05,-51.33,0,*60
1483848075.13,56980,2.88,72428.0,-21.13,-51.05,-51.47,0,*65
1483848076.35,56981,2.88,72430.8,-21.13,-50.75,-51.11,0,*61
1483848077.59,56982,2.88,72430.5,-21.11,-50.97,-51.11,0,*6C
1483848078.83,56983,2.88,72428.8,-21.13,-50.97,-51.25,0,*68
1483848080.08,56984,2.88,72428.0,-21.13,-51.25,-51.69,0,*6F
1483848081.32,56985,2.88,72420.3,-21.13,-51.11,-51.55,0,*66
1483848082.56,56986,2.88,72428.5,-21.13,-51.11,-51.55,0,*65
1483848083.81,56987,2.88,72426.5,-21.13,-51.11,-51.47,0,*67
1483848085.08,56988,2.88,72426.3,-21.11,-51.25,-51.69,0,*61
1483848086.32,56989,2.88,72426.3,-21.13,-51.33,-51.77,0,*6A
1483848087.56,56990,2.88,72424.0,-21.13,-51.05,-51.47,0,*64
1483848088.78,56991,2.88,72424.3,-21.13,-51.11,-51.69,0,*6C
1483848090.03,56992,2.88,72426.8,-21.15,-51.41,-51.77,0,*63
1483848091.27,56993,2.88,72430.8,-21.15,-51.11,-51.41,0,*62
1483848092.51,56994,2.88,72426.0,-21.13,-51.05,-51.47,0,*60
1483848093.76,56995,2.88,72424.8,-21.13,-51.05,-51.25,0,*65
1483848095.0,56996,2.88,72430.8,-21.13,-51.05,-51.47,0,*62
1483848096.24,56997,2.88,72424.8,-21.13,-50.97,-51.25,0,*6D
1483848097.51,56998,2.88,72430.5,-21.11,-51.11,-51.47,0,*6B
1483848098.79,56999,2.88,72430.3,-21.13,-50.83,-51.25,0,*66
1483848100.04,57000,2.88,72432.3,-21.13,-50.75,-51.25,0,*67
1483848101.3,57001,2.88,72428.8,-21.15,-51.05,-51.55,0,*61
1483848102.55,57002,2.88,72428.0,-21.13,-50.83,-51.11,0,*6B
1483848103.79,57003,2.88,72430.5,-21.13,-50.97,-51.33,0,*6F
1483848105.03,57004,2.88,72430.3,-21.13,-51.11,-51.47,0,*64
1483848106.28,57005,2.88,72426.3,-21.13,-51.05,-51.25,0,*64
1483848107.52,57006,2.88,72432.0,-21.13,-50.97,-51.47,0,*69
1483848108.76,57007,2.88,72430.5,-21.13,-50.97,-51.25,0,*6C
1483848110.0,57008,2.88,72430.5,-21.13,-50.97,-51.47,0,*67
1483848111.24,57009,2.88,72428.3,-21.13,-51.05,-51.33,0,*6F
1483848112.48,57010,2.88,72430.8,-21.13,-51.05,-51.33,0,*67
1483848113.72,57011,2.88,72424.5,-21.13,-50.97,-51.25,0,*6B
1483848114.99,57012,2.88,72424.0,-21.11,-51.05,-51.33,0,*67
1483848116.26,57013,2.88,72424.8,-21.11,-51.05,-51.47,0,*65
1483848117.53,57014,2.88,72426.3,-21.11,-51.05,-51.25,0,*66
1483848118.75,57015,2.88,72426.8,-21.13,-50.75,-51.05,0,*61
1483848120.02,57016,2.88,72422.3,-21.11,-50.61,-51.05,0,*65
1483848121.3,57017,2.88,72420.0,-21.13,-50.83,-51.25,0,*68
1483848122.55,57018,2.88,72426.5,-21.13,-50.75,-51.33,0,*69
1483848123.81,57019,2.88,72430.3,-21.11,-50.53,-51.05,0,*6B
1483848125.09,57020,2.88,72430.3,-21.11,-50.61,-51.05,0,*60
1483848126.36,57021,2.88,72424.8,-21.11,-50.61,-51.11,0,*64
1483848127.61,57022,2.88,72424.0,-21.11,-50.75,-51.11,0,*62
1483848128.85,57023,2.88,72428.8,-21.11,-50.75,-51.11,0,*63
1483848130.12,57024,2.88,72428.0,-21.11,-50.53,-51.05,0,*65
1483848131.34,57025,2.88,72428.3,-21.09,-50.47,-50.97,0,*62
1483848132.56,57026,2.88,72430.3,-21.09,-50.75,-51.05,0,*6A
1483848133.78,57027,2.88,72430.3,-21.09,-50.67,-51.05,0,*68
1483848135.06,57028,2.88,72428.5,-21.07,-50.97,-51.25,0,*64
1483848136.3,57029,2.88,72430.0,-21.09,-51.05,-51.47,0,*65
1483848137.55,57030,2.88,72430.5,-21.09,-51.25,-51.69,0,*63
1483848138.8,57031,2.88,72430.5,-21.09,-51.19,-51.63,0,*67
1483848140.01,57032,2.88,72428.0,-21.09,-50.97,-51.41,0,*63
1483848141.25,57033,2.88,72430.3,-21.09,-50.97,-51.47,0,*64
1483848142.46,57034,2.88,72432.3,-21.09,-50.89,-51.05,0,*6A
1483848143.71,57035,2.88,72428.0,-21.09,-50.53,-51.05,0,*6C
1483848144.92,57036,2.88,72430.0,-21.09,-50.47,-50.89,0,*6F
1483848146.16,57037,2.88,72432.3,-21.09,-50.53,-50.97,0,*64
1483848147.43,57038,2.88,72430.5,-21.07,-50.53,-51.05,0,*6F
1483848148.67,57039,2.88,72436.3,-21.07,-50.97,-51.41,0,*66
1483848149.91,57040,2.88,72432.5,-21.09,-50.97,-51.25,0,*64
1483848151.16,57041,2.88,72434.0,-21.07,-50.75,-51.05,0,*65
1483848152.43,57042,2.88,72436.0,-21.07,-50.89,-51.25,0,*67
1483848153.7,57043,2.88,72438.5,-21.07,-50.53,-50.89,0,*66
1483848154.95,57044,2.88,72438.5,-21.07,-50.75,-51.19,0,*6D
1483848156.22,57045,2.88,72436.5,-21.07,-50.53,-51.05,0,*65
1483848157.44,57046,2.88,72440.8,-21.09,-50.67,-51.05,0,*6F
1483848158.71,57047,2.88,72446.8,-21.07,-50.53,-50.97,0,*6D
1483848159.95,57048,2.88,72446.0,-21.05,-50.53,-50.89,0,*6F
1483848161.17,57049,2.88,72446.0,-21.05,-50.47,-50.75,0,*68
1483848162.41,57050,2.88,72444.8,-21.05,-50.33,-50.75,0,*63
1483848163.63,57051,2.88,72450.0,-21.05,-50.47,-50.89,0,*62
1483848164.84,57052,2.88,72448.0,-21.05,-50.47,-50.97,0,*6E
1483848166.08,57053,2.88,72446.8,-21.03,-50.47,-50.89,0,*66
1483848167.33,57054,2.88,72442.5,-21.03,-50.67,-51.11,0,*63
1483848168.58,57055,2.88,72446.0,-21.03,-50.67,-51.11,0,*62
1483848169.85,57056,2.88,72438.3,-21.03,-50.89,-51.33,0,*61
1483848171.09,57057,2.88,72434.0,-21.05,-51.19,-51.63,0,*6B
1483848172.31,57058,2.88,72428.0,-21.01,-51.41,-51.85,0,*65
1483848173.55,57059,2.88,72414.5,-21.05,-51.63,-51.85,0,*60
1483848174.8,57060,2.88,72408.0,-21.03,-51.69,-52.07,0,*6F
1483848176.06,57061,2.88,72406.8,-21.03,-51.77,-52.13,0,*64
1483848177.33,57062,2.88,72414.0,-21.03,-51.77,-51.99,0,*66
1483848178.61,57063,2.88,72414.0,-21.05,-51.47,-51.91,0,*6A
1483848179.86,57064,2.88,72416.8,-21.05,-51.25,-51.69,0,*6E
1483848181.11,57065,2.88,72416.8,-21.05,-51.47,-51.85,0,*69
1483848182.38,57066,2.88,72418.3,-21.07,-51.19,-51.47,0,*6D
1483848183.6,57067,2.88,72416.5,-21.05,-51.05,-51.69,0,*6F
1483848184.83,57068,2.88,72416.8,-21.05,-51.19,-51.69,0,*6D
1483848186.04,57069,2.88,72426.3,-21.05,-51.05,-51.41,0,*6B
1483848187.29,57070,2.88,72420.8,-21.05,-50.97,-51.25,0,*6B
1483848188.55,57071,2.88,72422.0,-21.03,-50.97,-51.47,0,*68
1483848189.78,57072,2.88,72418.0,-21.05,-51.19,-51.69,0,*66
1483848191.03,57073,2.88,72418.3,-21.05,-51.25,-51.69,0,*68
1483848192.28,57074,2.88,72414.0,-21.05,-51.25,-51.69,0,*6F
1483848193.5,57075,2.88,72416.5,-21.05,-51.41,-51.85,0,*6E
1483848194.77,57076,2.88,72424.8,-21.03,-51.19,-51.63,0,*6E
1483848196.04,57077,2.88,72422.0,-21.03,-51.19,-51.55,0,*6A
1483848197.29,57078,2.88,72420.0,-21.05,-51.25,-51.85,0,*61
1483848198.53,57079,2.88,72422.8,-21.05,-51.47,-51.85,0,*64
1483848199.78,57080,2.88,72426.0,-21.05,-51.41,-51.91,0,*61
1483848201.03,57081,2.88,72424.8,-21.05,-51.19,-51.63,0,*60
1483848202.24,57082,2.88,72422.0,-21.05,-50.89,-51.19,0,*66
1483848203.47,57083,2.88,72424.3,-21.05,-50.75,-51.19,0,*64
1483848204.71,57084,2.88,72428.0,-21.05,-50.89,-51.25,0,*6F
1483848205.95,57085,2.88,72426.8,-21.05,-51.05,-51.63,0,*69
1483848207.2,57086,2.88,72426.8,-21.05,-51.19,-51.63,0,*67
1483848208.48,57087,2.88,72422.5,-21.05,-51.25,-51.63,0,*69
1483848209.72,57088,2.88,72422.8,-21.05,-51.19,-51.47,0,*6F
1483848210.98,57089,2.88,72422.5,-21.05,-51.19,-51.63,0,*68
1483848212.21,57090,2.88,72430.8,-21.03,-50.97,-51.41,0,*61
1483848213.45,57091,2.88,72420.3,-21.07,-50.97,-51.41,0,*64
1483848214.69,57092,2.88,72424.8,-21.05,-50.97,-51.47,0,*63
1483848215.93,57093,2.88,72424.5,-21.05,-50.53,-50.97,0,*66
1483848217.15,57094,2.88,72430.8,-21.05,-50.47,-50.89,0,*6B
1483848218.36,57095,2.88,72424.3,-21.05,-50.89,-51.19,0,*60
1483848219.58,57096,2.88,72424.8,-21.05,-50.75,-51.19,0,*60
1483848220.86,57097,2.88,72426.8,-21.03,-50.61,-50.97,0,*65
1483848222.07,57098,2.88,72424.5,-21.05,-50.47,-50.75,0,*64
1483848223.29,57099,2.88,72424.8,-21.05,-50.47,-50.97,0,*69
1483848224.56,57100,2.88,72422.5,-21.03,-50.61,-50.97,0,*6A
1483848225.83,57101,2.88,72428.0,-21.03,-50.83,-51.11,0,*68
1483848227.1,57102,2.88,72430.5,-21.03,-50.61,-50.97,0,*68
1483848228.37,57103,2.88,72432.5,-21.03,-50.83,-51.19,0,*62
1483848229.65,57104,2.88,72436.0,-21.03,-50.61,-50.97,0,*6E
1483848230.88,57105,2.88,72436.0,-21.03,-50.47,-50.89,0,*64
1483848232.15,57106,2.88,72442.8,-21.03,-50.61,-50.89,0,*63
1483848233.4,57107,2.88,72438.3,-21.03,-50.39,-50.89,0,*6F
1483848234.65,57108,2.88,72438.3,-21.03,-50.39,-50.89,0,*60
1483848235.88,57109,2.88,72434.5,-20.97,-50.67,-51.11,0,*66
1483848237.16,57110,2.88,72430.5,-20.97,-50.83,-51.25,0,*63
1483848238.4,57111,2.88,72428.8,-21.01,-50.89,-51.33,0,*61
1483848239.61,57112,2.88,72422.5,-21.01,-50.97,-51.41,0,*68
1483848240.85,57113,2.88,72408.5,-21.01,-51.11,-51.55,0,*63
1483848242.06,57114,2.88,72404.5,-21.01,-51.11,-51.41,0,*61
1483848243.3,57115,2.88,72420.0,-21.01,-50.89,-51.55,0,*65
1483848244.52,57116,2.88,72424.8,-20.97,-50.75,-51.05,0,*6E
1483848245.76,57117,2.88,72426.8,-21.01,-50.53,-50.89,0,*60
1483848247.04,57118,2.88,72422.5,-20.97,-50.33,-50.61,0,*61
1483848248.29,57119,2.88,72422.5,-20.97,-50.17,-50.75,0,*63
1483848249.54,57120,2.88,72422.0,-20.97,-50.17,-50.75,0,*69
1483848250.81,57121,2.88,72424.3,-20.97,-50.17,-50.61,0,*6D
1483848252.07,57122,2.88,72416.5,-20.97,-50.39,-50.83,0,*6E
1483848253.34,57123,2.88,72424.3,-20.97,-50.53,-50.83,0,*63
1483848254.59,57124,2.88,72422.5,-20.97,-50.61,-50.89,0,*6F
1483848255.84,57125,2.88,72418.0,-20.97,-50.61,-51.11,0,*6E
1483848257.09,57126,2.88,72420.3,-20.97,-50.89,-51.25,0,*6C
1483848258.34,57127,2.88,72420.5,-20.97,-51.05,-51.47,0,*6C
1483848259.56,57128,2.88,72422.3,-20.97,-50.75,-51.05,0,*63
1483848260.81,57129,2.88,72416.8,-20.97,-50.61,-50.89,0,*62
1483848262.04,57130,2.88,72412.3,-20.97,-50.75,-51.05,0,*6A
1483848263.31,57131,2.88,72418.3,-20.95,-50.61,-51.05,0,*6C
1483848264.57,57132,2.88,72412.8,-20.95,-50.53,-50.89,0,*6B
1483848265.85,57133,2.88,72414.3,-20.95,-50.33,-50.75,0,*6F
1483848267.12,57134,2.88,72418.5,-20.95,-50.39,-50.83,0,*6B
1483848268.37,57135,2.88,72412.0,-20.95,-50.75,-51.05,0,*6D
1483848269.61,57136,2.88,72412.8,-20.93,-50.53,-50.97,0,*66
1483848270.87,57137,2.88,72418.0,-20.95,-50.53,-50.89,0,*6E
1483848272.14,57138,2.88,72420.8,-20.95,-50.53,-50.89,0,*61
1483848273.38,57139,2.88,72420.8,-20.95,-50.39,-50.89,0,*6C
1483848274.66,57140,2.88,72422.3,-20.95,-50.39,-50.83,0,*68
1483848275.9,57141,2.88,72424.5,-20.93,-50.53,-50.97,0,*66
1483848277.14,57142,2.88,72426.0,-20.93,-50.25,-50.67,0,*6B
1483848278.38,57143,2.88,72428.3,-20.93,-50.47,-50.83,0,*64
1483848279.63,57144,2.88,72430.5,-20.93,-50.33,-50.75,0,*69
1483848280.87,57145,2.88,72432.0,-20.93,-50.33,-50.75,0,*68
1483848282.09,57146,2.88,72432.0,-20.89,-50.47,-50.89,0,*60
1483848283.31,57147,2.88,72434.5,-20.89,-50.39,-50.89,0,*68
1483848284.56,57148,2.88,72434.8,-20.89,-50.61,-50.89,0,*6A
1483848285.79,57149,2.88,72432.5,-20.89,-50.67,-51.11,0,*6D
1483848287.03,57150,2.88,72432.5,-20.89,-50.97,-51.33,0,*6A
1483848288.27,57151,2.88,72430.3,-20.93,-51.05,-51.47,0,*69
1483848289.52,57152,2.88,72430.0,-20.89,-51.11,-51.63,0,*62
1483848290.76,57153,2.88,72428.3,-20.89,-50.97,-51.55,0,*69
1483848291.97,57154,2.88,72430.8,-20.93,-51.41,-51.69,0,*60
1483848293.19,57155,2.88,72432.0,-20.93,-51.41,-51.85,0,*63
1483848294.48,57156,2.88,72430.3,-20.95,-51.55,-51.99,0,*6E
1483848295.73,57157,2.88,72434.5,-20.93,-51.25,-51.69,0,*61
1483848297.01,57158,2.88,72428.5,-20.95,-51.69,-51.99,0,*6F
1483848298.26,57159,2.88,72430.3,-20.93,-51.47,-51.69,0,*6B
1483848299.53,57160,2.88,72426.8,-20.95,-51.47,-51.77,0,*68
1483848300.8,57161,2.88,72428.0,-20.95,-51.47,-51.77,0,*69
1483848302.07,57162,2.88,72424.0,-20.95,-51.47,-51.77,0,*6A
1483848303.32,57163,2.88,72426.5,-20.97,-51.25,-51.69,0,*62
1483848304.57,57164,2.88,72428.5,-20.97,-51.33,-51.69,0,*62
1483848305.82,57165,2.88,72428.8,-20.97,-51.33,-51.69,0,*63
1483848307.07,57166,2.88,72422.5,-20.97,-51.33,-51.77,0,*6F
1483848308.31,57167,2.88,72420.3,-20.97,-51.33,-51.77,0,*6E
1483848309.58,57168,2.88,72422.3,-20.97,-51.33,-51.91,0,*69
1483848310.86,57169,2.88,72422.8,-20.97,-51.47,-51.55,0,*63
1483848312.1,57170,2.88,72420.8,-20.97,-51.33,-51.77,0,*68
1483848313.35,57171,2.88,72420.8,-20.97,-51.33,-51.69,0,*66
1483848314.59,57172,2.88,72418.8,-21.01,-51.41,-51.63,0,*64
1483848315.84,57173,2.88,72414.3,-20.97,-51.33,-51.69,0,*64
1483848317.09,57174,2.88,72414.8,-20.97,-51.47,-51.77,0,*6F
1483848318.35,57175,2.88,72416.3,-20.97,-51.25,-51.69,0,*65
1483848319.59,57176,2.88,72416.0,-20.97,-51.05,-51.47,0,*68
1483848320.86,57177,2.88,72416.5,-21.01,-51.33,-51.63,0,*64
1483848322.11,57178,2.88,72422.5,-20.97,-50.61,-51.11,0,*66
1483848323.33,57179,2.88,72420.3,-21.01,-50.67,-51.11,0,*6F
1483848324.58,57180,2.88,72422.5,-21.01,-50.61,-51.19,0,*67
1483848325.84,57181,2.88,72420.3,-20.97,-50.75,-51.25,0,*62
1483848327.12,57182,2.88,72424.8,-20.97,-50.83,-51.25,0,*68
1483848328.37,57183,2.88,72424.5,-20.97,-50.83,-51.11,0,*6E
1483848329.65,57184,2.88,72424.3,-20.97,-50.83,-51.33,0,*69
1483848330.9,57185,2.88,72424.8,-20.97,-50.89,-51.25,0,*65
1483848332.11,57186,2.81,72420.3,-21.01,-50.89,-51.11,0,*6F
1483848333.39,57187,2.88,72424.3,-20.97,-50.83,-51.25,0,*6D
1483848334.67,57188,2.88,72422.0,-20.97,-50.83,-51.25,0,*62
1483848335.92,57189,2.88,72422.0,-20.97,-51.11,-51.47,0,*6D
1483848337.17,57190,2.88,72424.0,-20.97,-51.05,-51.47,0,*60
1483848338.42,57191,2.88,72430.0,-20.97,-51.05,-51.47,0,*61
1483848339.67,57192,2.88,72424.0,-20.97,-50.89,-51.25,0,*63
1483848340.92,57193,2.88,72428.0,-20.97,-50.83,-51.11,0,*6F
1483848342.16,57194,2.88,72428.3,-20.97,-51.05,-51.47,0,*64
1483848343.41,57195,2.88,72428.5,-20.97,-50.89,-51.33,0,*63
1483848344.66,57196,2.88,72428.0,-20.97,-50.89,-51.25,0,*67
1483848345.9,57197,2.88,72428.0,-21.01,-50.83,-51.19,0,*6D
1483848347.13,57198,2.88,72426.3,-20.97,-50.75,-51.05,0,*68
1483848348.38,57199,2.88,72424.5,-20.97,-50.83,-51.11,0,*65
1483848349.63,57200,2.88,72430.0,-20.97,-51.05,-51.47,0,*6A
1483848350.88,57201,2.88,72428.5,-20.97,-51.11,-51.47,0,*6E
1483848352.13,57202,2.88,72430.0,-20.97,-51.05,-51.47,0,*68
1483848353.37,57203,2.88,72432.3,-20.97,-50.89,-51.47,0,*6C
1483848354.61,57204,2.88,72428.8,-21.01,-51.11,-51.55,0,*66
1483848355.88,57205,2.88,72428.3,-21.01,-50.83,-51.33,0,*6D
1483848357.11,57206,2.88,72428.8,-21.01,-50.97,-51.47,0,*68
1483848358.36,57207,2.88,72428.3,-21.01,-51.19,-51.55,0,*6D
1483848359.6,57208,2.88,72428.5,-21.01,-50.97,-51.33,0,*65
1483848360.84,57209,2.88,72430.3,-20.97,-50.89,-51.25,0,*62
1483848362.07,57210,2.88,72430.0,-21.01,-50.67,-50.97,0,*6C
1483848363.29,57211,2.88,72424.8,-20.97,-50.75,-51.05,0,*6A
1483848364.52,57212,2.88,72430.3,-20.97,-50.39,-50.89,0,*64
1483848365.76,57213,2.88,72426.3,-20.97,-50.53,-50.89,0,*69
1483848366.99,57214,2.88,72428.0,-20.97,-50.75,-51.11,0,*6A
1483848368.21,57215,2.88,72428.8,-21.01,-50.67,-50.97,0,*69
1483848369.47,57216,2.88,72430.5,-20.97,-50.75,-51.25,0,*6F
1483848370.68,57217,2.88,72426.3,-21.01,-50.89,-51.19,0,*6C
1483848371.96,57218,2.88,72430.0,-20.97,-50.83,-51.25,0,*68
1483848373.25,57219,2.88,72428.5,-20.97,-50.83,-51.25,0,*69
1483848374.47,57220,2.81,72426.3,-20.97,-50.75,-51.11,0,*6D
1483848375.68,57221,2.88,72430.5,-21.01,-50.89,-51.41,0,*64
1483848376.91,57222,2.88,72424.0,-20.97,-50.75,-51.11,0,*6F
1483848378.15,57223,2.88,72424.5,-20.97,-50.89,-51.47,0,*6E
1483848379.38,57224,2.88,72428.0,-20.97,-50.75,-51.05,0,*6C
1483848380.62,57225,2.88,72428.5,-20.97,-50.53,-50.89,0,*6C
1483848381.88,57226,2.88,72432.5,-20.97,-50.75,-51.25,0,*6C
1483848383.13,57227,2.88,72432.0,-20.97,-50.89,-51.25,0,*6E
1483848384.39,57228,2.88,72430.5,-21.01,-51.33,-51.55,0,*68
1483848385.65,57229,2.88,72424.0,-20.95,-51.05,-51.55,0,*60
1483848386.89,57230,2.88,72420.5,-20.97,-50.89,-51.55,0,*6F
1483848388.14,57231,2.88,72426.0,-20.97,-51.05,-51.47,0,*68
1483848389.38,57232,2.88,72424.0,-21.01,-51.19,-51.63,0,*6E
1483848390.66,57233,2.88,72426.3,-20.97,-50.83,-51.33,0,*66
1483848391.9,57234,2.88,72424.3,-21.01,-50.89,-51.33,0,*65
1483848393.14,57235,2.88,72426.8,-20.97,-50.89,-51.33,0,*6A
1483848394.35,57236,2.88,72422.0,-21.01,-50.97,-51.41,0,*6D
1483848395.61,57237,2.88,72426.8,-20.97,-51.11,-51.47,0,*6B
1483848396.82,57238,2.81,72420.8,-21.01,-51.11,-51.41,0,*6C
1483848398.03,57239,2.88,72420.5,-21.01,-50.97,-51.41,0,*62
1483848399.28,57240,2.88,72424.5,-20.97,-50.89,-51.33,0,*68
1483848400.49,57241,2.88,72424.0,-21.01,-50.89,-51.41,0,*62
1483848401.7,57242,2.88,72420.3,-21.01,-51.11,-51.41,0,*61
1483848402.95,57243,2.88,72424.8,-21.01,-51.19,-51.55,0,*6D
1483848404.16,57244,2.88,72424.3,-21.01,-51.11,-51.41,0,*67
1483848405.38,57245,2.88,72424.5,-21.01,-51.11,-51.41,0,*66
1483848406.62,57246,2.88,72424.0,-20.97,-51.05,-51.47,0,*68
1483848407.83,57247,2.88,72422.3,-21.01,-50.89,-51.41,0,*64
1483848409.11,57248,2.88,72422.0,-20.97,-50.83,-51.25,0,*6D
1483848410.35,57249,2.88,72426.5,-21.01,-51.11,-51.55,0,*6F
1483848411.59,57250,2.88,72426.5,-21.01,-50.97,-51.55,0,*68
1483848412.83,57251,2.88,72418.8,-21.01,-51.11,-51.55,0,*66
1483848414.06,57252,2.88,72414.5,-21.01,-50.97,-51.55,0,*6A
1483848415.3,57253,2.88,72418.0,-21.01,-51.11,-51.55,0,*64
1483848416.51,57254,2.88,72420.0,-21.01,-50.97,-51.41,0,*69
1483848417.73,57255,2.88,72418.8,-21.01,-50.67,-51.19,0,*6A
1483848418.98,57256,2.88,72430.3,-21.01,-50.61,-50.97,0,*68
1483848420.19,57257,2.88,72426.3,-21.01,-50.47,-50.97,0,*6D
1483848421.44,57258,2.88,72430.0,-21.01,-50.61,-51.11,0,*69
1483848422.66,57259,2.88,72432.0,-21.01,-50.67,-51.19,0,*66
1483848423.93,57260,2.88,72434.0,-21.01,-50.83,-51.33,0,*6E
1483848425.16,57261,2.88,72434.8,-20.97,-50.75,-51.11,0,*68
1483848426.37,57262,2.88,72428.5,-21.01,-50.47,-50.97,0,*6B
1483848427.58,57263,2.88,72428.8,-21.01,-50.47,-50.97,0,*6A
1483848428.79,57264,2.88,72428.3,-21.01,-50.89,-51.11,0,*60
1483848430.04,57265,2.88,72426.0,-21.01,-50.67,-51.33,0,*61
1483848431.27,57266,2.88,72410.8,-21.01,-50.39,-50.67,0,*69
1483848432.52,57267,2.88,72412.8,-21.01,-50.03,-50.39,0,*6A
1483848433.78,57268,2.88,72418.0,-20.97,-49.89,-50.33,0,*6B
1483848435.03,57269,2.88,72418.5,-21.01,-49.97,-50.17,0,*6D
1483848436.28,57270,2.88,72420.5,-20.97,-49.75,-50.17,0,*67
1483848437.56,57271,2.88,72426.5,-20.97,-50.11,-50.61,0,*6D
1483848438.86,57272,2.88,72424.8,-20.95,-50.33,-50.83,0,*60
1483848440.13,57273,2.88,72428.5,-20.95,-50.39,-50.83,0,*6B
1483848441.4,57274,2.88,72428.3,-20.95,-50.61,-51.05,0,*6E
1483848442.68,57275,2.88,72428.3,-20.95,-50.61,-51.05,0,*6F
1483848443.95,57276,2.88,72430.3,-20.95,-50.61,-51.05,0,*6C
1483848445.23,57277,2.88,72434.8,-20.95,-50.75,-51.25,0,*6A
1483848446.51,57278,2.88,72436.0,-20.97,-50.61,-51.25,0,*62
1483848447.8,57279,2.88,72430.0,-20.97,-50.61,-51.25,0,*63
1483848449.06,57280,2.88,72434.8,-20.95,-50.53,-50.89,0,*61
1483848450.31,57281,2.88,72428.8,-20.95,-50.39,-50.89,0,*6C
1483848451.55,57282,2.88,72428.0,-20.97,-50.53,-51.05,0,*64
1483848452.83,57283,2.88,72426.0,-20.95,-50.75,-51.25,0,*61
1483848454.11,57284,2.88,72428.3,-20.97,-50.61,-51.25,0,*61
1483848455.34,57285,2.88,72430.5,-20.97,-50.39,-50.89,0,*6A
1483848456.6,57286,2.88,72418.8,-20.97,-50.75,-51.25,0,*66
1483848457.9,57287,2.88,72424.0,-20.95,-50.83,-51.33,0,*6B
1483848459.15,57288,2.88,72420.5,-20.95,-50.75,-51.11,0,*6D
1483848460.41,57289,2.88,72416.3,-20.95,-50.53,-50.89,0,*68
1483848461.68,57290,2.88,72422.3,-20.97,-50.17,-50.61,0,*64
1483848462.97,57291,2.88,72418.0,-20.97,-50.11,-50.61,0,*63
1483848464.21,57292,2.88,72422.8,-20.97,-49.67,-50.11,0,*6E
1483848465.45,57293,2.88,72424.3,-20.93,-49.61,-49.89,0,*64
1483848466.75,57294,2.88,72428.3,-20.95,-50.17,-50.61,0,*62
1483848467.97,57295,2.88,72428.0,-20.93,-49.89,-50.47,0,*6E
1483848469.22,57296,2.88,72424.3,-20.93,-49.89,-50.25,0,*69
1483848470.47,57297,2.88,72428.8,-20.93,-50.11,-50.67,0,*67
1483848471.74,57298,2.88,72426.8,-20.93,-50.11,-50.53,0,*6F
1483848472.99,57299,2.88,72426.0,-20.93,-49.81,-50.25,0,*6E
1483848474.29,57300,2.88,72428.0,-20.95,-50.11,-50.61,0,*68
1483848475.56,57301,2.88,72434.3,-20.87,-49.97,-50.25,0,*6C
1483848476.82,57302,2.88,72428.8,-20.89,-50.03,-50.67,0,*62
1483848478.07,57303,2.88,72430.3,-20.89,-50.17,-50.67,0,*66
1483848479.29,57304,2.88,72426.8,-20.89,-50.39,-50.89,0,*6D
1483848480.54,57305,2.88,72426.8,-20.89,-50.25,-50.75,0,*62
1483848481.76,57306,2.88,72426.3,-20.89,-50.39,-50.75,0,*6C
1483848483.03,57307,2.88,72428.0,-20.87,-50.17,-50.67,0,*6C
1483848484.27,57308,2.88,72424.5,-20.89,-49.97,-50.39,0,*66
1483848485.55,57309,2.88,72422.3,-20.87,-50.03,-50.67,0,*67
1483848486.82,57310,2.88,72428.3,-20.87,-50.03,-50.47,0,*6D
1483848488.09,57311,2.88,72426.0,-20.87,-50.03,-50.47,0,*6C
1483848489.39,57312,2.88,72426.0,-20.83,-50.17,-50.61,0,*6A
1483848490.66,57313,2.88,72430.3,-20.87,-50.25,-50.67,0,*68
1483848491.93,57314,2.88,72434.5,-20.87,-50.17,-50.67,0,*6E
1483848493.23,57315,2.88,72428.8,-20.87,-50.17,-50.61,0,*69
1483848494.51,57316,2.88,72432.8,-20.89,-50.03,-50.61,0,*61
1483848495.79,57317,2.88,72438.0,-20.87,-50.03,-50.67,0,*68
1483848497.05,57318,2.88,72434.8,-20.87,-50.25,-50.67,0,*63
1483848498.32,57319,2.88,72434.5,-20.87,-50.25,-50.75,0,*61
1483848499.59,57320,2.88,72432.0,-20.83,-50.17,-50.67,0,*6D